Location: Madrid
(40.4000°N, 3.6830°W)
Time: 19:35:51
(UTC+01:00)

ISS - Pass Details

Date: 02 March 2021
Orbit: 417 x 422 km, 51.6° (Epoch: 26 February)

Event Time Altitude Azimuth Distance (km) Brightness Sun altitude
Exits shadow 07:14:05 - 315° (NW) 2,059 -0.7 -7.0°
Reaches altitude 10° 07:16:10 10° 338° (NNW) 1,499 -1.2 -6.6°
Maximum altitude 07:17:51 13° 8° (N) 1,322 -1.2 -6.3°
Drops below altitude 10° 07:19:33 10° 38° (NE) 1,498 -0.4 -6.0°
Sets 07:22:33 0° 68° (ENE) 2,362 1.3 -5.4°
